Location: Stokes Fall Starparty
(41.2298°N, 74.7506°W)
Time: 19:45:13
(UTC-05:00)

Daily predictions for brighter satellites

Satellite Brightness Start Highest point End
(mag) Time Altitude Azimuth Time Altitude Azimuth Time Altitude Azimuth
BREEZE-M DEB (TANK) 3.1 17:16:49 10° WNW 17:21:23 84° SW 17:26:42 10° SE
AQUARIUS 4.1 17:19:50 10° SSE 17:24:18 76° ENE 17:28:49 10° N
Cosmos 1763 Rocket 4.0 17:21:00 10° S 17:25:51 39° ESE 17:30:40 10° NE
Abrixas rocket 2.2 17:24:43 10° WNW 17:28:02 73° NNE 17:31:21 10° ESE
Cosmos 1300 4.4 17:26:22 10° NE 17:28:20 13° ENE 17:30:17 10° ESE
Cosmos 1328 Rocket 4.1 17:27:29 10° N 17:31:36 36° ENE 17:35:42 10° SE
Cosmos 2322 3.9 17:27:59 10° SSW 17:33:40 79° WNW 17:39:24 10° NNE
Cosmos 1515 Rocket 4.4 17:32:01 10° NNE 17:35:59 30° ENE 17:39:56 10° SE
SKYMED 2 4.2 17:33:25 10° NNE 17:37:27 36° E 17:41:28 10° SSE
SMAP 3.3 17:34:47 10° S 17:39:26 76° WSW 17:44:06 10° NNW
SPOT 3 Rocket 3.6 17:34:23 10° SSE 17:39:31 85° WSW 17:44:43 10° NNW
Thor Agena Rocket 3.6 17:36:20 10° NNE 17:41:39 87° ESE 17:46:51 10° SSW
SL-16 R/B 4.1 17:37:54 10° WSW 17:42:34 26° NW 17:47:17 10° N
Cosmos 1726 3.5 17:39:54 10° NNE 17:42:41 19° ENE 17:45:28 10° ESE
Cosmos 2150 Rocket 4.1 17:37:44 10° NNW 17:42:59 85° WSW 17:48:08 10° SSE
Cosmos 2263 Rocket 4.1 17:39:55 10° NW 17:45:01 35° WSW 17:50:04 10° SSW
Meteor 1-21 Rocket 4.3 17:39:13 10° S 17:45:08 80° E 17:51:02 10° NNE
Cosmos 2034 Rocket 4.4 17:38:59 10° N 17:45:20 74° W 17:51:40 10° S
COSMOS 2441 4.3 17:41:00 10° SSE 17:45:52 78° ENE 17:50:44 10° N
Molniya-1 4.1 17:44:41 10° SSW 17:47:08 46° ESE 17:51:04 11° NE
SJ-6B 4.2 17:45:06 10° ESE 17:48:02 20° ENE 17:51:02 10° NNE
Cosmos 2333 4.3 17:42:38 10° S 17:48:08 60° ESE 17:53:39 10° NNE
Cosmos 1898 Rocket 4.1 17:42:57 10° NNW 17:48:15 63° WSW 17:53:29 10° S
USA 215 3.3 17:43:27 10° ESE 17:49:56 67° NE 17:56:26 10° NW
Atlas Centaur 2 3.9 17:46:34 10° WSW 17:50:05 19° SSW 17:53:09 10° SSE
Cosmos 1844 Rocket 2.8 17:45:12 10° NNW 17:50:49 57° ENE 17:56:20 10° SE
IDEFIX/ARIANE 42P 3.5 17:46:15 10° S 17:51:18 53° W 17:56:26 10° NNW
Cosmos 1500 Rocket 4.0 17:47:18 10° SSE 17:51:18 39° E 17:55:22 10° NNE
Cosmos 2151 4.0 17:48:36 10° SE 17:52:01 25° E 17:55:26 10° NE
Meteor 1-28 Rocket 3.8 17:50:52 10° NNE 17:54:18 34° E 17:57:42 10° SSE
Cosmos 1151 Rocket 3.7 17:50:40 10° NNE 17:54:29 31° ENE 17:58:18 10° SE
Cosmos 1814 Rocket 4.3 17:49:46 10° SSW 17:55:05 74° WNW 18:00:29 10° NNE
Cosmos 1125 Rocket 4.2 17:51:06 10° N 17:55:45 32° ENE 18:00:22 10° SE
Cosmos 1980 4.4 17:55:40 10° SSE 18:00:37 32° ESE 18:04:39 14° NE
Cosmos 2360 Rocket 3.3 17:56:21 10° SW 18:01:40 42° WNW 18:07:00 10° N
Cosmos 990 Rocket 4.1 17:58:18 10° NNW 18:03:35 81° WSW 18:08:50 10° SSE
Resurs 01 Rocket 3.1 18:07:54 18° NE 18:07:54 18° NE 18:10:20 10° NNE
OTV 4 1.2 18:04:36 10° WSW 18:07:26 43° S 18:09:01 21° ESE
Cosmos 2333 Rocket 2.5 18:03:00 10° S 18:08:19 44° ESE 18:12:51 14° NE
NOSS 0 Rocket 4.3 18:04:30 10° S 18:10:21 44° ESE 18:15:20 14° NE
Cosmos 841 Rocket 3.6 18:12:22 10° SSW 18:17:39 84° WNW 18:22:57 10° NNE
Cosmos 1340 Rocket 3.9 18:15:36 10° SSE 18:18:20 24° ESE 18:18:20 24° ESE
FENGYUN 3A 4.3 18:17:35 10° SE 18:22:14 31° ENE 18:26:54 10° N
Cosmos 2228 Rocket 3.8 18:19:19 10° NNW 18:23:37 55° W 18:27:56 10° S
Cosmos 2279 Rocket 4.1 18:18:01 10° N 18:24:04 51° ENE 18:30:06 10° SSE
COSMO-SKYMED 1 3.0 18:21:13 10° N 18:25:32 64° WNW 18:29:49 10° SSW
Cosmos 332 Rocket 3.9 18:24:16 10° SSW 18:29:04 76° WNW 18:33:55 10° NNE
Cosmos 2219 Rocket 2.1 18:24:20 10° SSW 18:29:58 86° ESE 18:34:56 14° NNE
Cosmos 2278 Rocket 2.3 18:26:16 10° NNW 18:31:51 54° ENE 18:37:23 10° SE
SL-14 R/B 3.1 18:28:54 10° S 18:32:46 71° E 18:35:26 20° NNE
BREEZE M DEB (TANK) 2.5 18:31:16 10° NW 18:33:08 31° NNW 18:33:08 31° NNW
Aureole 2 Rocket 4.3 18:31:34 10° SSE 18:32:50 18° SE 18:32:50 18° SE
Cosmos 2180 Rocket 4.5 18:31:35 10° N 18:37:37 54° E 18:43:38 10° SSE
CENTAUR R/B 3.2 18:31:57 10° SW 18:37:56 54° NW 18:43:56 13° NNE
Cosmos 2084 3.1 18:34:55 10° SSW 18:38:48 68° ESE 18:39:29 54° ENE
Milstar 3 4.3 18:33:43 10° WSW 18:39:11 27° S 18:45:21 10° SE
METEOR-M 4.0 18:34:13 10° SSE 18:39:34 83° ENE 18:44:57 10° NNW
Cosmos 1844 3.9 18:35:54 10° NNW 18:41:41 75° WSW 18:47:26 10° SSE
Nadezhda 4 Rocket 4.4 18:39:31 10° SSE 18:45:13 39° E 18:46:58 33° NE
Meteor 2-10 3.8 18:40:44 10° N 18:45:48 71° E 18:50:57 10° SSE
COSMOS 2428 4.0 18:43:25 10° SW 18:48:45 39° WNW 18:54:05 10° N
Lacrosse 5 rocket 2.8 18:49:06 10° NNW 18:51:00 22° N 18:51:00 22° N
ALOS 2.2 18:48:45 10° SSE 18:53:19 58° ENE 18:57:54 10° N
DNEPR-1 R/B 4.5 18:48:19 10° SW 18:55:23 82° WNW 18:58:32 30° NNE
Cosmos 2237 Rocket 2.1 18:51:56 10° SSW 18:57:33 87° ESE 19:00:18 32° NNE
Cosmos 44 3.3 18:54:41 10° SSW 18:59:57 78° ESE 19:01:00 57° NE
Hubble Space Telescope 3.5 18:59:31 10° SSW 19:00:03 10° SSW 19:00:36 10° S
Cosmos 371 Rocket 4.0 18:55:53 10° SW 19:00:34 51° WNW 19:03:53 19° N
SL-16 R/B 2.9 18:55:31 10° S 18:59:32 35° SE 18:59:32 35° SE
SL-19 R/B 4.3 18:54:43 10° SSE 19:00:48 84° ENE 19:06:32 10° NNW
Cosmos 1300 4.1 19:00:39 10° NNW 19:04:15 39° W 19:07:49 10° SSW
Lacrosse 5 3.9 19:03:03 10° NW 19:06:13 16° NNW 19:07:33 15° N
Cosmos 2297 4.0 19:02:50 10° NNW 19:07:32 47° NNE 19:07:32 47° NNE
Cosmos 2058 3.8 19:10:08 10° SSW 19:14:07 48° W 19:15:33 33° NNW
Cosmos 372 Rocket 4.1 19:12:23 10° NNW 19:17:28 70° WSW 19:21:04 19° S
Cosmos 1726 4.4 19:14:52 10° NW 19:18:00 25° W 19:21:06 10° SSW
Cosmos 44 Rocket 4.2 19:14:04 10° SW 19:19:01 47° NW 19:20:27 37° N
Cosmos 1805 Rocket 4.0 19:16:32 10° SSW 19:20:13 58° SW 19:20:13 58° SW
FengYun 1-2 T 4.4 19:20:04 10° S 19:25:37 70° WSW 19:31:11 10° NNW
Resurs 01 Rocket 3.5 19:45:27 26° NW 19:45:27 26° NW 19:47:37 10° NNW
H-2A ROCKET BODY 3.9 19:34:55 10° WSW 19:48:02 30° SSW 19:49:07 29° S
Spot 2 Rocket 4.5 19:43:33 10° S 19:48:22 44° W 19:53:12 10° NNW
Cosmos 2333 Rocket 3.9 19:47:56 10° WSW 19:52:44 28° NW 19:54:55 22° NNW
Cosmos 2278 Rocket 4.4 20:11:19 10° NW 20:15:28 21° W 20:19:36 10° SSW
